Regional Weather Roundup
Issued by NWS Little Rock, AR

Home | Current Version | Previous Version | Graphics & Text | Print | Product List | Glossary On
Versions: 1 2 3 4 5 6 7 8 9 10 11 12 13 14 15 16 17 18 19 20 21 22 23 24 25 26 27 28 29 30 31 32 33 34 35 36 37 38 39 40 41 42 43 44 45 46 47 48 49 50
000
ASUS44 KLZK 302305
RWRLZK

WEATHER ROUNDUP FOR ARKANSAS
NATIONAL WEATHER SERVICE LITTLE ROCK AR
600 PM CDT TUE SEP 30 2014

NOTE: "FAIR" INDICATES FEW OR NO CLOUDS BELOW 12,000 FEET WITH NO
SIGNIFICANT WEATHER AND/OR OBSTRUCTIONS TO VISIBILITY.

ARZ001-003-010-029-010000-
NORTHWEST ARKANSAS

CITY           SKY/WX    TMP DP  RH WIND       PRES   REMARKS
FAYETTEVILLE   SUNNY     77  60  55 S7        29.87S
FORT SMITH     PTSUNNY   81  61  50 SE7       29.83F
HARRISON       SUNNY     78  58  49 S5        29.89S
BENTONVILLE    CLOUDY    79  59  50 S8        29.87F
ROGERS         PTSUNNY   77  59  53 SE9       29.88S
SILOAM SPGS    CLOUDY    79  59  50 S10       29.87S
HIGHFILL       MOSUNNY   77  60  55 S8        29.86S
SPRINGDALE     MOSUNNY   79  59  50 S12       29.89F
$$

ARZ004-005-016-010000-
NORTH CENTRAL ARKANSAS

CITY           SKY/WX    TMP DP  RH WIND       PRES   REMARKS
BATESVILLE     MOCLDY    82  50  32 E5        29.86S
FLIPPIN        SUNNY     82  54  36 E5        29.87F
MTN HOME       SUNNY     81  54  39 E5        29.87S
$$

ARZ040-041-010000-
WEST CENTRAL ARKANSAS

CITY           SKY/WX    TMP DP  RH WIND       PRES   REMARKS
MENA           MOSUNNY   81  66  61 CALM      29.86F
MOUNT IDA      PTSUNNY   78  67  68 CALM      29.84F
$$

ARZ009-017-025-026-028-010000-
NORTHEAST ARKANSAS

CITY           SKY/WX    TMP DP  RH WIND       PRES   REMARKS
CORNING          N/A     82  55  39 CALM      29.87S
JONESBORO      PTCLDY    84  56  38 SE3       29.86R
NEWPORT        MOCLDY    85  55  35 SE7       29.87S
WALNUT RIDGE   PTCLDY    79  59  50 NE6       29.86R
BLYTHEVILLE    PTCLDY    82  60  47 SE5       29.87S
$$

ARZ022-023-033-042-044-010000-
CENTRAL ARKANSAS

CITY           SKY/WX    TMP DP  RH WIND       PRES   REMARKS
LITTLE ROCK    PTSUNNY   84  57  39 SW6       29.85S
N LITTLE ROCK  PTSUNNY   83  58  41 S7        29.85S
JACKSONVILLE   MOSUNNY   84  57  39 E2        29.85S
SEARCY         MOCLDY    82  62  50 CALM      29.86F
HOT SPRINGS    PTSUNNY   84  58  40 SE5       29.85F
RUSSELLVILLE   PTSUNNY   84  60  44 CALM      29.85F
CLINTON        FAIR      81  66  61 CALM      29.86S
$$

ARZ036-010000-
EAST ARKANSAS

CITY           SKY/WX    TMP DP  RH WIND       PRES   REMARKS
WEST MEMPHIS   PTCLDY    82  61  48 S5        29.85S
$$

ARZ050-053-066-070-073-010000-
SOUTHWEST ARKANSAS

CITY           SKY/WX    TMP DP  RH WIND       PRES   REMARKS
ARKADELPHIA    FAIR      82  70  67 CALM      29.84F HX  86
CAMDEN         MOSUNNY   86  57  37 CALM      29.82S HX  85
TEXARKANA      PTSUNNY   84  66  54 E6        29.81F HX  86
EL DORADO      SUNNY     87  63  44 CALM      29.82F HX  88
DE QUEEN       MOSUNNY   82  67  60 E7        29.80F
$$

ARZ056-057-069-010000-
SOUTHEAST ARKANSAS

CITY           SKY/WX    TMP DP  RH WIND       PRES   REMARKS
PINE BLUFF     MOSUNNY   84  59  42 W3        29.84F
STUTTGART      MOCLDY   N/A N/A N/A NE6       29.86S
MONTICELLO     SUNNY     87  57  35 CALM      29.83F HX  86

$$





USA.gov is the U.S. government's official web portal to all federal, state and local government web resources and services.